Location: Hylvaty SDH
(49.9612°N, 16.4057°E)
Time: 12:30:51
(UTC+01:00)

Tiros 1 - Pass Details

Date: 04 October 2020
Orbit: 630 x 663 km, 48.4° (Epoch: 28 October)

Event Time Altitude Azimuth Distance (km) Brightness Sun altitude
Rises 17:51:30 0° 280° (W) 2,966 12.0 4.6°
Reaches altitude 10° 17:53:53 10° 275° (W) 2,059 11.5 4.2°
Maximum altitude 17:58:28 50° 201° (SSW) 834 8.1 3.5°
Drops below altitude 10° 18:03:06 10° 126° (SE) 2,070 9.4 2.8°
Sets 18:05:29 0° 121° (ESE) 2,984 10.1 2.4°
